User: anonymous   Login
Location: Unspecified
(0.0000°N, 0.0000°E)
Time: 10:24:26
(UTC+00:00)
Language:

COSMOS 2409 - Orbit

View from above orbital plane
View from above orbital plane
View from above satellite
View from above satellite

Ground track
Ground track

The orbit data is extracted from the following two-line orbital elements,

1 28380U 04028A   20219.80995366 +.00000048 +00000-0 +32855-4 0  9994
2 28380 082.9583 219.5366 0040423 116.6621 243.8680 13.76079836805695
Epoch (UTC): 06 August 2020 19:26:19
Eccentricity: 0.0040423
inclination: 82.9583°
perigee height: 948 km
apogee height: 1007 km
right ascension of ascending node: 219.5366°
argument of perigee: 116.6621°
revolutions per day: 13.76079836
mean anomaly at epoch: 243.8680°
orbit number at epoch: 80569

The dashed part of the orbit path shows where the satellite is in the earth's shadow,  

DLR